[[{"header":{"parameterUnit":"m.s-1","parameterCategory":1,"la1":30.2991,"la2":30.254,"lo1":-89.0895,"lo2":-89.0444,"dy":0.0017,"dx":0.0017,"nx":28,"ny":28,"refTime":"2025-09-15T09:00:00:Z","depth":0,"parameterNumber":2,"parameterNumberName":"U-component_of_WINDS"},"data":[0,0,0,0,0,0,0,0,0,0,0,0,0,0,0,0,0,0,0,0,0,0,0,0,0,0,0,0,0,0,0,0,0,0,0,0,0,0,0,0,0,0,0,0,0,0,0,0,0,0,0,0,0,0,0,0,0,0,-1.9304,-1.9304,0,-1.9316,-1.9316,-1.9316,-1.9295,-1.9294,-1.9293,-1.9293,-1.9306,-1.9307,-1.9308,0,0,0,0,0,0,0,0,0,0,0,0,0,-1.9262,-1.9263,-1.9304,-1.9304,-1.9304,-1.9316,-1.9316,-1.9316,-1.9295,-1.9294,-1.9293,-1.9292,-1.9306,-1.9307,-1.9308,0,0,0,0,0,0,0,0,0,0,0,0,0,-1.9278,-1.9263,-1.9304,-1.9295,-1.9294,-1.9316,-1.9316,-1.9317,-1.9295,-1.9294,-1.9293,-1.9292,-1.9305,-1.9307,-1.9308,-1.934,0,0,-1.9313,-1.9314,0,0,0,0,0,0,0,0,-1.9277,-1.928,-1.9296,-1.9295,-1.9295,-1.9303,-1.9307,-1.9324,-1.9295,-1.9295,-1.9293,-1.9291,-1.9306,-1.9307,-1.9312,-1.9341,-1.9341,-1.9313,-1.9314,-1.9315,-1.9315,0,0,0,0,0,0,0,-1.9276,-1.9279,-1.9309,-1.9296,-1.9295,-1.929,-1.9291,-1.931,-1.9306,-1.9295,-1.9293,-1.9295,-1.9305,-1.9311,-1.9312,-1.9341,-1.9313,-1.9315,-1.9316,-1.9316,-1.9398,-1.94,0,0,0,0,0,0,-1.9276,-1.9278,-1.9308,-1.9309,-1.9283,-1.9292,-1.9293,-1.9301,-1.9306,-1.9306,-1.9296,-1.9294,-1.9309,-1.9311,-1.9313,-1.9351,-1.9315,-1.9316,-1.9317,-1.9397,-1.9399,-1.94,0,0,0,0,0,0,-1.9275,-1.9279,-1.9308,-1.9293,-1.9296,-1.9294,-1.9303,-1.9302,-1.9307,-1.9307,-1.9306,-1.9302,-1.9308,-1.931,-1.9334,-1.9351,-1.9317,-1.9319,-1.9396,-1.9398,-1.9399,-1.9427,0,0,0,0,0,0,-1.9274,-1.9279,-1.929,-1.9294,-1.9297,-1.9328,-1.9304,-1.9303,-1.931,-1.9308,-1.9312,-1.9312,-1.9307,-1.9332,-1.9335,-1.9353,-1.932,-1.9394,-1.9397,-1.9399,-1.9425,-1.943,-1.9434,0,0,0,0,0,-1.9273,-1.9297,-1.9291,-1.9295,-1.9312,-1.9329,-1.9331,-1.9325,-1.9311,-1.9323,-1.9323,-1.9312,-1.9349,-1.9334,-1.9338,-1.9356,-1.9393,-1.9396,-1.9399,-1.9423,-1.9429,-1.9434,0,0,0,0,0,0,-1.9296,-1.9297,-1.929,-1.9317,-1.9323,-1.9325,-1.934,-1.9331,-1.9341,-1.9339,-1.933,-1.9332,-1.9357,-1.9359,-1.9343,-1.9388,-1.9369,-1.9373,-1.9386,-1.9392,-1.9396,-1.9395,-1.9321,0,0,0,0,0,-1.9304,-1.9318,-1.9319,-1.9342,-1.9345,-1.9342,-1.9349,-1.9344,-1.935,-1.9353,-1.9354,-1.9361,-1.9374,-1.9383,-1.9395,-1.9425,-1.9427,-1.944,-1.9445,-1.9448,-1.9452,-1.9469,-1.9475,-1.9409,-1.9409,-1.9409,0,0,-1.9321,-1.9323,-1.9332,-1.9346,-1.935,-1.9365,-1.9344,-1.9361,-1.9372,-1.9355,-1.9377,-1.9379,-1.9386,-1.9414,-1.9426,-1.9416,-1.9471,-1.9452,-1.9455,-1.9456,-1.9473,-1.9479,-1.9485,-1.9411,-1.9411,-1.9411,0,0,-1.9359,-1.9362,-1.9382,-1.9387,-1.9394,-1.9392,-1.9397,-1.9401,-1.9402,-1.9424,-1.9412,-1.9426,-1.9449,-1.9455,-1.946,-1.9503,-1.9494,-1.9508,-1.9532,-1.9549,-1.9554,-1.9559,-1.9575,-1.9581,-1.9511,-1.9511,-1.9511,0,-1.9379,-1.94,-1.9394,-1.9411,-1.9418,-1.9405,-1.9426,-1.9431,-1.9441,-1.9447,-1.9436,-1.9465,-1.9469,-1.9498,-1.9508,-1.9513,-1.952,-1.9507,-1.9554,-1.9559,-1.9563,-1.9578,-1.9584,-1.9513,-1.9513,-1.9512,-1.9512,0,-1.9425,-1.9441,-1.9456,-1.9467,-1.9476,-1.9495,-1.9492,-1.9502,-1.9497,-1.9496,-1.952,-1.9524,-1.9537,-1.9544,-1.9539,-1.9573,-1.9567,-1.9555,-1.9536,-1.9571,-1.9585,-1.9591,-1.9515,-1.9515,-1.9514,-1.9514,0,0,-1.9477,-1.9485,-1.9491,-1.9496,-1.9504,-1.9516,-1.9535,-1.9548,-1.9557,-1.9566,-1.9582,-1.9603,-1.9592,-1.9599,-1.9595,-1.961,-1.9645,-1.9596,-1.9597,-1.9606,-1.9684,-1.9693,-1.97,-1.9639,-1.964,-1.9641,-1.9684,0,-1.9515,-1.9548,-1.9543,-1.9575,-1.959,-1.9578,-1.9595,-1.9602,-1.9603,-1.9616,-1.9617,-1.9632,-1.9617,-1.9621,-1.9636,-1.9637,-1.966,-1.9634,-1.9655,-1.9655,-1.9653,-1.9707,-1.9716,-1.9756,-1.9689,-1.969,-1.9691,0,-1.9564,-1.9574,-1.9608,-1.9615,-1.9621,-1.9636,-1.9648,-1.9661,-1.9669,-1.9669,-1.9678,-1.9671,-1.9692,-1.9672,-1.9701,-1.9683,-1.9692,-1.9694,-1.9695,-1.9697,-1.9675,-1.971,-1.9768,-1.9775,-1.9699,-1.9699,-1.9698,0,-1.9598,-1.9621,-1.9645,-1.965,-1.9658,-1.9669,-1.9673,-1.968,-1.9689,-1.9701,-1.9706,-1.972,-1.9727,-1.9739,-1.9736,-1.9722,-1.9766,-1.9746,-1.9767,-1.9767,-1.9776,-1.9776,-1.9837,-1.9782,-1.9782,-1.9782,-1.9781,0,-1.9642,-1.9663,-1.966,-1.9675,-1.9699,-1.9694,-1.9718,-1.972,-1.9727,-1.9743,-1.9734,-1.9748,-1.9744,-1.9759,-1.9758,-1.9783,-1.9786,-1.9787,-1.9786,-1.9787,-1.9787,-1.9793,-1.979,-1.9783,-1.9783,-1.9782,-1.9782,0,-1.9684,-1.9683,-1.9708,-1.9714,-1.9717,-1.9734,-1.974,-1.9754,-1.9755,-1.9774,-1.9779,-1.978,-1.9797,-1.9796,-1.9816,-1.9815,-1.9845,-1.9841,-1.9843,-1.9842,-1.9863,-1.9861,-1.9929,-1.9939,-1.9877,-1.9878,-1.9878,0,-1.9711,-1.9727,-1.9736,-1.9746,-1.9751,-1.9766,-1.9776,-1.9772,-1.9782,-1.9794,-1.9807,-1.9824,-1.9837,-1.9865,-1.9868,-1.9884,-1.988,-1.9903,-1.9882,-1.9884,-1.9881,-1.988,-1.9882,-1.9907,-1.9908,-1.9908,-1.9909,0,-1.976,-1.976,-1.9773,-1.9787,-1.9799,-1.981,-1.982,-1.9828,-1.9826,-1.9838,-1.9856,-1.9866,-1.9887,-1.9904,-1.9919,-1.9924,-1.9917,-1.9916,-1.9921,-1.9923,-1.9923,-1.9924,-1.9854,-1.9914,-1.9913,-1.9913,-1.9913,-1.9913,-1.9796,-1.981,-1.9819,-1.9835,-1.9843,-1.9853,-1.9866,-1.987,-1.9884,-1.9901,-1.9898,-1.9918,-1.9928,-1.9948,-1.9954,-1.9971,-1.9963,-1.9971,-1.9973,-1.9975,-1.9977,-1.9921,-1.9974,-1.9973,-1.9973,-1.9973,-1.9973,0,-1.9845,-1.985,-1.9865,-1.988,-1.9893,-1.9885,-1.9896,-1.9908,-1.9926,-1.9936,-1.9949,-1.997,-1.9987,-1.9993,-2.0009,-2.0022,-2.0019,-2.0026,-2.0025,-2.0027,-1.9983,-1.9977,-2.0028,-2.0028,-2.0028,-2.0028,-2.0028,-2.0028,-1.9872,-1.9896,-1.9897,-1.9925,-1.9931,-1.995,-1.9958,-1.9967,-1.9975,-1.9999,-2.0014,-2.0017,-2.0025,-2.0043,-2.0059,-2.006,-2.0067,-2.0076,-2.0076,-2.0035,-2.0029,-2.0024,-2.0018,-2.0077,-2.0077,-2.0117,-2.0118,-2.0118]},{"header":{"parameterUnit":"m.s-1","parameterCategory":1,"la1":30.2991,"la2":30.254,"lo1":-89.0895,"lo2":-89.0444,"dy":0.0017,"dx":0.0017,"nx":28,"ny":28,"refTime":"2025-09-15T09:00:00:Z","depth":0,"parameterNumber":3,"parameterNumberName":"V-component_of_WINDS"},"data":[0,0,0,0,0,0,0,0,0,0,0,0,0,0,0,0,0,0,0,0,0,0,0,0,0,0,0,0,0,0,0,0,0,0,0,0,0,0,0,0,0,0,0,0,0,0,0,0,0,0,0,0,0,0,0,0,0,0,0.3277,0.3277,0,0.3344,0.3345,0.3346,0.3393,0.3394,0.3394,0.3394,0.3462,0.3463,0.3464,0,0,0,0,0,0,0,0,0,0,0,0,0,0.3185,0.3186,0.3277,0.3277,0.3278,0.3344,0.3345,0.3346,0.3393,0.3394,0.3394,0.3395,0.3461,0.3463,0.3465,0,0,0,0,0,0,0,0,0,0,0,0,0,0.3236,0.3187,0.3276,0.331,0.3314,0.3344,0.3345,0.3346,0.3393,0.3394,0.3394,0.3395,0.3461,0.3463,0.3465,0.3467,0,0,0.3471,0.3472,0,0,0,0,0,0,0,0,0.3233,0.3239,0.3304,0.3308,0.3312,0.3361,0.3337,0.3387,0.3393,0.3363,0.3394,0.3395,0.3428,0.3432,0.3444,0.347,0.3473,0.3472,0.3473,0.3474,0.3474,0,0,0,0,0,0,0,0.3229,0.3236,0.3303,0.3305,0.331,0.332,0.3328,0.3347,0.3391,0.3366,0.3369,0.3377,0.343,0.3442,0.3446,0.3474,0.3471,0.3473,0.3475,0.3476,0.3502,0.3501,0,0,0,0,0,0,0.3221,0.3233,0.3301,0.3305,0.3273,0.3321,0.333,0.3345,0.3391,0.3399,0.3376,0.3379,0.3438,0.3443,0.3448,0.3451,0.3474,0.3476,0.3477,0.3502,0.3501,0.3501,0,0,0,0,0,0,0.3219,0.3227,0.3298,0.327,0.328,0.3323,0.3338,0.3346,0.3358,0.3399,0.3407,0.338,0.3438,0.3445,0.3461,0.3455,0.3477,0.3479,0.3503,0.3502,0.3501,0.3459,0,0,0,0,0,0,0.3216,0.3226,0.3228,0.327,0.3282,0.3311,0.3338,0.3347,0.3361,0.3365,0.3405,0.3412,0.3439,0.3458,0.3463,0.3458,0.348,0.3504,0.3502,0.3501,0.3461,0.3457,0.3453,0,0,0,0,0,0.3213,0.3213,0.3228,0.3236,0.3285,0.3311,0.3317,0.3349,0.3361,0.3362,0.3389,0.3411,0.3455,0.3459,0.3466,0.3461,0.3504,0.3503,0.3501,0.3463,0.3458,0.3453,0,0,0,0,0,0,0.3169,0.322,0.3236,0.3251,0.3276,0.3319,0.3322,0.3343,0.3365,0.3368,0.3406,0.3414,0.3425,0.3445,0.3449,0.3464,0.3482,0.3482,0.345,0.3446,0.3442,0.3436,0.3482,0,0,0,0,0,0.3161,0.3179,0.3222,0.3231,0.3242,0.328,0.3292,0.3314,0.3342,0.3353,0.338,0.3405,0.3424,0.3436,0.3457,0.3464,0.3472,0.3464,0.346,0.3456,0.3456,0.3458,0.3454,0.3496,0.3496,0.3496,0,0,0.3146,0.3175,0.3184,0.3222,0.3245,0.326,0.3289,0.3305,0.3316,0.3355,0.3371,0.3392,0.3423,0.3434,0.344,0.345,0.3446,0.3455,0.3452,0.3453,0.3457,0.3452,0.3449,0.3495,0.3496,0.3496,0,0,0.3124,0.3149,0.3158,0.3179,0.3213,0.3237,0.3239,0.3278,0.3293,0.3311,0.3339,0.3353,0.3386,0.3405,0.342,0.3403,0.3423,0.3408,0.3387,0.3389,0.3386,0.3383,0.3374,0.3371,0.3408,0.3407,0.3407,0,0.31,0.3126,0.316,0.3174,0.3189,0.3224,0.3232,0.3251,0.3289,0.3298,0.3309,0.3349,0.3372,0.3387,0.3383,0.3394,0.3396,0.3404,0.3384,0.3381,0.3379,0.3371,0.3368,0.3405,0.3406,0.3406,0.3406,0,0.3093,0.311,0.3113,0.3148,0.3164,0.3175,0.3209,0.322,0.324,0.3263,0.3278,0.3307,0.3332,0.3338,0.3358,0.3355,0.336,0.3377,0.3396,0.3372,0.3365,0.3363,0.3402,0.3403,0.3404,0.3404,0,0,0.3048,0.31,0.31,0.3115,0.3153,0.3167,0.3178,0.3203,0.321,0.3235,0.3244,0.3269,0.3285,0.3301,0.3323,0.3325,0.3307,0.3342,0.3343,0.3332,0.3302,0.3287,0.3284,0.3321,0.3321,0.332,0.3298,0,0.3031,0.3054,0.3083,0.3096,0.311,0.3143,0.3152,0.3176,0.3197,0.3211,0.3234,0.3251,0.3271,0.328,0.3284,0.3308,0.3301,0.3311,0.3328,0.3328,0.3317,0.3281,0.3266,0.3244,0.3296,0.3296,0.3296,0,0.3015,0.3036,0.3049,0.3084,0.3091,0.3099,0.3122,0.3137,0.3163,0.3178,0.3194,0.3218,0.3229,0.3247,0.3262,0.3268,0.3277,0.3289,0.3289,0.3291,0.3309,0.3279,0.3239,0.3234,0.3293,0.3293,0.3293,0,0.2977,0.301,0.3021,0.3034,0.3074,0.3078,0.3096,0.3122,0.3134,0.3155,0.3162,0.3184,0.3195,0.321,0.3238,0.3249,0.3249,0.327,0.326,0.3259,0.3258,0.3257,0.3215,0.3266,0.3266,0.3266,0.3266,0,0.2955,0.2961,0.3005,0.3012,0.3019,0.3052,0.3058,0.3078,0.3101,0.311,0.3141,0.3149,0.3186,0.3199,0.3221,0.3228,0.3234,0.3244,0.325,0.3241,0.3239,0.3246,0.3247,0.3265,0.3266,0.3266,0.3266,0,0.2914,0.2944,0.2958,0.2995,0.3004,0.3007,0.3038,0.3045,0.3067,0.3079,0.3084,0.3118,0.3133,0.3163,0.3188,0.3202,0.3204,0.3215,0.3195,0.3198,0.3185,0.3185,0.3145,0.3141,0.3196,0.3195,0.3195,0,0.2897,0.2903,0.2939,0.2948,0.2963,0.2978,0.2989,0.3022,0.3033,0.3061,0.3064,0.3082,0.3098,0.3121,0.3147,0.3165,0.3175,0.316,0.3178,0.3168,0.3172,0.3171,0.317,0.3155,0.3155,0.3154,0.3154,0,0.2863,0.2877,0.2893,0.2913,0.2926,0.2944,0.2964,0.2969,0.3005,0.3015,0.3032,0.3044,0.3068,0.3084,0.3105,0.3122,0.3142,0.3148,0.3146,0.3136,0.3123,0.3127,0.3181,0.3148,0.3149,0.3149,0.3149,0.315,0.2833,0.2838,0.2863,0.2879,0.2897,0.2913,0.2921,0.2943,0.2957,0.2979,0.2997,0.301,0.3034,0.3064,0.3079,0.3089,0.3099,0.3098,0.3097,0.3095,0.309,0.3122,0.3093,0.3094,0.3094,0.3094,0.3094,0,0.2798,0.2815,0.283,0.2855,0.2867,0.2886,0.2907,0.2916,0.2927,0.2948,0.2962,0.2979,0.2994,0.3021,0.3038,0.3041,0.3051,0.3044,0.3043,0.3046,0.3081,0.308,0.3036,0.3036,0.3036,0.3036,0.3036,0.3036,0.2781,0.279,0.2806,0.2822,0.284,0.2853,0.2863,0.2878,0.2894,0.2911,0.2924,0.2941,0.2963,0.2981,0.2995,0.3003,0.3007,0.2996,0.3006,0.3038,0.3044,0.3049,0.3048,0.2997,0.2997,0.297,0.297,0.2969]}]]